[[{"header":{"parameterUnit":"m.s-1","parameterCategory":1,"la1":30.2991,"la2":30.254,"lo1":-89.0895,"lo2":-89.0444,"dy":0.0017,"dx":0.0017,"nx":28,"ny":28,"refTime":"2025-06-07T21:00:00:Z","depth":0,"parameterNumber":2,"parameterNumberName":"U-component_of_WINDS"},"data":[0,0,0,0,0,0,0,0,0,0,0,0,0,0,0,0,0,0,0,0,0,0,0,0,0,0,0,0,0,0,0,0,0,0,0,0,0,0,0,0,0,0,0,0,0,0,0,0,0,0,0,0,0,0,0,0,0,0,5.5593,5.5595,0,5.575,5.5752,5.5753,5.57,5.5696,5.5693,5.569,5.5851,5.5858,5.5865,0,0,0,0,0,0,0,0,0,0,0,0,0,5.5246,5.5253,5.5593,5.5595,5.5597,5.5749,5.5752,5.5754,5.57,5.5696,5.5692,5.5688,5.5848,5.5857,5.5866,0,0,0,0,0,0,0,0,0,0,0,0,0,5.5399,5.5255,5.5593,5.5589,5.559,5.5749,5.5752,5.5754,5.5701,5.5696,5.5691,5.5686,5.5845,5.5856,5.5867,5.604,0,0,5.5902,5.5906,0,0,0,0,0,0,0,0,5.5391,5.5412,5.5587,5.5589,5.5591,5.57,5.5688,5.585,5.5703,5.5659,5.569,5.5684,5.5805,5.5819,5.586,5.6047,5.6054,5.5902,5.5909,5.5914,5.5917,0,0,0,0,0,0,0,5.538,5.5405,5.5655,5.559,5.5592,5.5578,5.5595,5.5719,5.5759,5.5662,5.5659,5.5678,5.5805,5.5849,5.5863,5.6057,5.5902,5.5912,5.5919,5.5923,5.639,5.6396,0,0,0,0,0,0,5.5368,5.5396,5.565,5.566,5.5476,5.5589,5.5607,5.567,5.5757,5.5766,5.5682,5.5675,5.5832,5.585,5.5868,5.6073,5.5914,5.5925,5.5931,5.6385,5.6391,5.6397,0,0,0,0,0,0,5.5361,5.5392,5.5644,5.5527,5.5558,5.56,5.5672,5.5676,5.572,5.5772,5.5779,5.572,5.5829,5.5853,5.5997,5.6078,5.593,5.594,5.6378,5.6387,5.6394,5.6486,0,0,0,0,0,0,5.5352,5.5389,5.5456,5.5529,5.5565,5.577,5.5677,5.5683,5.574,5.5731,5.581,5.5818,5.5827,5.598,5.6008,5.6091,5.5949,5.6371,5.6382,5.6392,5.6476,5.6497,5.6514,0,0,0,0,0,5.5339,5.5476,5.5459,5.549,5.5649,5.5775,5.5795,5.5802,5.5746,5.5813,5.5846,5.5815,5.6065,5.5995,5.6026,5.6114,5.6366,5.6379,5.6391,5.6467,5.6493,5.6514,0,0,0,0,0,0,5.5412,5.5486,5.5468,5.5633,5.5698,5.5765,5.585,5.5829,5.5912,5.5901,5.5906,5.5925,5.6072,5.6108,5.6029,5.6284,5.6207,5.6227,5.6255,5.6279,5.6298,5.6285,5.5958,0,0,0,0,0,5.5447,5.5544,5.5603,5.5743,5.5776,5.5807,5.5863,5.5863,5.593,5.5957,5.6001,5.6068,5.6161,5.6223,5.6312,5.6482,5.6496,5.6557,5.6576,5.6592,5.6608,5.6697,5.6724,5.6439,5.6439,5.6439,0,0,5.5521,5.5573,5.5634,5.5758,5.5809,5.5907,5.5831,5.594,5.6012,5.5974,5.6111,5.6146,5.6221,5.6378,5.6449,5.6412,5.669,5.6608,5.662,5.6628,5.6713,5.674,5.6763,5.6448,5.6446,5.6445,0,0,5.5704,5.5755,5.5875,5.5927,5.6004,5.6023,5.6052,5.6123,5.6144,5.6283,5.6255,5.6342,5.6504,5.6557,5.6605,5.6807,5.6781,5.6837,5.6936,5.7023,5.7045,5.7065,5.7134,5.7159,5.6853,5.6853,5.6853,0,5.5786,5.5934,5.5939,5.6049,5.6104,5.6074,5.6194,5.6244,5.6347,5.6385,5.6342,5.6542,5.659,5.6757,5.6807,5.6848,5.6879,5.6826,5.7042,5.7062,5.708,5.7146,5.7172,5.6859,5.6858,5.6858,5.6857,0,5.6028,5.6131,5.6219,5.6317,5.6382,5.6497,5.6519,5.6584,5.6579,5.6602,5.6742,5.68,5.6898,5.6938,5.6935,5.7105,5.7079,5.704,5.6962,5.7113,5.7175,5.72,5.6868,5.6866,5.6864,5.6862,0,0,5.6261,5.636,5.6392,5.6435,5.6517,5.6596,5.671,5.6805,5.6859,5.6931,5.7024,5.7161,5.7124,5.7179,5.7181,5.7258,5.741,5.7208,5.721,5.7241,5.7597,5.7624,5.7653,5.7394,5.7399,5.7403,5.759,0,5.6449,5.6647,5.6654,5.6835,5.6928,5.69,5.6998,5.7059,5.7084,5.7167,5.7195,5.729,5.7236,5.7268,5.7343,5.7376,5.7481,5.7363,5.7479,5.7483,5.7457,5.7686,5.7715,5.7889,5.7614,5.7618,5.7622,0,5.6694,5.6772,5.6961,5.7027,5.7067,5.7155,5.7241,5.7322,5.7389,5.7402,5.7463,5.7453,5.7567,5.7487,5.7643,5.7562,5.7611,5.7634,5.7641,5.7649,5.7559,5.7698,5.7945,5.7969,5.766,5.7657,5.7654,0,5.6841,5.6993,5.7125,5.7163,5.7245,5.7306,5.7343,5.7406,5.7462,5.7538,5.7574,5.7664,5.7712,5.7781,5.7794,5.7736,5.795,5.7872,5.7961,5.7961,5.8005,5.8002,5.826,5.8042,5.8042,5.8041,5.8041,0,5.7048,5.7163,5.7191,5.7272,5.74,5.7408,5.7535,5.7567,5.7623,5.7708,5.7691,5.7772,5.7787,5.7871,5.7883,5.8008,5.8031,5.8043,5.8044,5.8043,5.8041,5.8072,5.8059,5.8048,5.8047,5.8045,5.8044,0,5.7232,5.7256,5.7397,5.7462,5.7481,5.7572,5.7628,5.7704,5.7728,5.7836,5.7862,5.7899,5.7996,5.8017,5.8134,5.8141,5.8289,5.828,5.8266,5.8264,5.8351,5.8341,5.8636,5.8673,5.8434,5.8436,5.8438,0,5.7361,5.7449,5.7523,5.7579,5.7618,5.7709,5.7765,5.7777,5.7836,5.7919,5.7985,5.8081,5.8157,5.8314,5.835,5.8438,5.8429,5.8527,5.8442,5.8437,5.8426,5.842,5.8427,5.8542,5.8544,5.8546,5.8548,0,5.7585,5.7592,5.7675,5.7761,5.7829,5.7898,5.7963,5.801,5.803,5.8098,5.8196,5.8256,5.8373,5.8467,5.8555,5.8592,5.8573,5.8575,5.8599,5.8597,5.8583,5.8588,5.8306,5.8567,5.8565,5.8564,5.8563,5.8562,5.7744,5.7819,5.7882,5.7974,5.8024,5.8085,5.816,5.8192,5.8274,5.837,5.8372,5.8479,5.8543,5.8658,5.8701,5.8784,5.8754,5.8791,5.8799,5.8807,5.8813,5.8573,5.8801,5.88,5.88,5.88,5.8799,0,5.7964,5.8003,5.8088,5.8179,5.8251,5.8227,5.8297,5.8358,5.8453,5.8514,5.8589,5.8701,5.8792,5.8835,5.8924,5.8983,5.8976,5.9005,5.8999,5.9008,5.8837,5.8805,5.9009,5.9009,5.9009,5.9009,5.9009,5.9009,5.8087,5.8213,5.8227,5.8377,5.8415,5.8519,5.8561,5.8617,5.8665,5.8791,5.8866,5.8893,5.8947,5.9039,5.9121,5.9131,5.9163,5.9197,5.9202,5.9042,5.902,5.9,5.8969,5.9204,5.9205,5.9365,5.9367,5.9368]},{"header":{"parameterUnit":"m.s-1","parameterCategory":1,"la1":30.2991,"la2":30.254,"lo1":-89.0895,"lo2":-89.0444,"dy":0.0017,"dx":0.0017,"nx":28,"ny":28,"refTime":"2025-06-07T21:00:00:Z","depth":0,"parameterNumber":3,"parameterNumberName":"V-component_of_WINDS"},"data":[0,0,0,0,0,0,0,0,0,0,0,0,0,0,0,0,0,0,0,0,0,0,0,0,0,0,0,0,0,0,0,0,0,0,0,0,0,0,0,0,0,0,0,0,0,0,0,0,0,0,0,0,0,0,0,0,0,0,3.0366,3.0367,0,3.0467,3.0468,3.047,3.0453,3.0452,3.045,3.0448,3.0551,3.0555,3.056,0,0,0,0,0,0,0,0,0,0,0,0,0,3.0157,3.0161,3.0366,3.0367,3.0369,3.0467,3.0468,3.047,3.0454,3.0452,3.0449,3.0447,3.055,3.0555,3.056,0,0,0,0,0,0,0,0,0,0,0,0,0,3.0252,3.0162,3.0366,3.0372,3.0374,3.0467,3.0469,3.047,3.0454,3.0451,3.0449,3.0446,3.0548,3.0554,3.0561,3.0653,0,0,3.0581,3.0584,0,0,0,0,0,0,0,0,3.0247,3.026,3.037,3.0372,3.0374,3.0445,3.0433,3.0532,3.0455,3.0424,3.0448,3.0445,3.0518,3.0527,3.0552,3.0658,3.0663,3.0581,3.0585,3.0588,3.059,0,0,0,0,0,0,0,3.024,3.0255,3.0406,3.0372,3.0374,3.037,3.038,3.0451,3.0484,3.0426,3.0425,3.0437,3.0519,3.0545,3.0554,3.0664,3.0581,3.0587,3.0591,3.0594,3.0851,3.0853,0,0,0,0,0,0,3.0232,3.025,3.0403,3.0409,3.0303,3.0376,3.0387,3.0425,3.0483,3.049,3.044,3.0436,3.0535,3.0546,3.0557,3.0669,3.0588,3.0594,3.0598,3.0848,3.0851,3.0854,0,0,0,0,0,0,3.0227,3.0246,3.0399,3.0329,3.0348,3.0382,3.0424,3.0428,3.0455,3.0494,3.0499,3.0461,3.0534,3.0548,3.0629,3.0672,3.0597,3.0603,3.0844,3.0849,3.0853,3.0893,0,0,0,0,0,0,3.0221,3.0244,3.028,3.033,3.0352,3.047,3.0427,3.0432,3.0466,3.0463,3.0515,3.0521,3.0533,3.062,3.0636,3.068,3.0608,3.0841,3.0846,3.0851,3.0888,3.0898,3.0907,0,0,0,0,0,3.0214,3.0288,3.0282,3.0301,3.0398,3.0472,3.0485,3.0497,3.047,3.0506,3.053,3.052,3.0665,3.0628,3.0646,3.0693,3.0838,3.0845,3.0851,3.0884,3.0896,3.0907,0,0,0,0,0,0,3.0242,3.0294,3.0289,3.0381,3.0422,3.0469,3.0516,3.051,3.056,3.0555,3.0567,3.0579,3.0661,3.0685,3.0643,3.0785,3.0748,3.0758,3.0766,3.0779,3.0788,3.078,3.0614,0,0,0,0,0,3.0258,3.0315,3.0358,3.0435,3.0456,3.0482,3.0515,3.052,3.0564,3.0581,3.0612,3.0654,3.0709,3.0745,3.0798,3.0891,3.0902,3.0932,3.0941,3.0949,3.0958,3.1008,3.1022,3.0876,3.0876,3.0876,0,0,3.0294,3.033,3.0364,3.0441,3.0474,3.0531,3.0497,3.056,3.0602,3.0591,3.0669,3.0693,3.0741,3.0828,3.0868,3.0851,3.1,3.0957,3.0963,3.0968,3.1016,3.103,3.1042,3.088,3.0879,3.0879,0,0,3.0388,3.0421,3.0488,3.0521,3.0571,3.0588,3.0604,3.0652,3.0668,3.0747,3.0739,3.0789,3.0884,3.0918,3.0948,3.1053,3.1044,3.107,3.1119,3.1168,3.118,3.119,3.1227,3.124,3.1078,3.1079,3.1079,0,3.0425,3.0512,3.0523,3.0587,3.062,3.0612,3.068,3.0712,3.0776,3.0799,3.0778,3.0896,3.0928,3.1023,3.1049,3.1073,3.1091,3.1064,3.1177,3.1187,3.1197,3.1233,3.1246,3.1081,3.1081,3.1081,3.108,0,3.0556,3.0616,3.0664,3.0727,3.0766,3.0831,3.0851,3.0889,3.0891,3.0909,3.0989,3.1027,3.1087,3.1109,3.1112,3.1204,3.1192,3.1174,3.1137,3.1214,3.1247,3.1261,3.1085,3.1084,3.1083,3.1083,0,0,3.0671,3.0738,3.0755,3.0783,3.0837,3.0883,3.0948,3.1006,3.1038,3.1082,3.1136,3.1216,3.1199,3.1233,3.1239,3.1282,3.1362,3.1259,3.126,3.1276,3.1465,3.1478,3.1494,3.1356,3.1359,3.1361,3.1461,0,3.077,3.0884,3.0895,3.0997,3.1052,3.1044,3.11,3.1139,3.1158,3.1207,3.1227,3.1283,3.1258,3.1278,3.132,3.1343,3.14,3.1336,3.1406,3.1408,3.1394,3.1512,3.1526,3.1619,3.1474,3.1477,3.1478,0,3.09,3.0948,3.1056,3.1101,3.1124,3.1174,3.1228,3.1275,3.1319,3.1329,3.1366,3.1366,3.1432,3.1391,3.1481,3.1438,3.1467,3.1482,3.1486,3.1493,3.1448,3.1522,3.1649,3.1662,3.1499,3.1497,3.1496,0,3.0973,3.1064,3.114,3.1164,3.1219,3.1254,3.1278,3.1319,3.1353,3.14,3.1422,3.1476,3.1505,3.1546,3.156,3.153,3.1649,3.1611,3.166,3.1659,3.1685,3.1684,3.1819,3.1704,3.1704,3.1704,3.1703,0,3.1082,3.1148,3.1173,3.122,3.1293,3.1305,3.1377,3.1399,3.1435,3.1485,3.1482,3.1529,3.1545,3.1595,3.1606,3.1678,3.1692,3.1701,3.1704,3.1702,3.1701,3.1721,3.1715,3.1707,3.1707,3.1706,3.1705,0,3.1176,3.1195,3.1277,3.1322,3.1335,3.1387,3.1425,3.1469,3.1487,3.155,3.1566,3.1594,3.1652,3.167,3.174,3.1747,3.1832,3.1828,3.1817,3.1818,3.1865,3.186,3.2018,3.2039,3.1911,3.1912,3.1913,0,3.1244,3.1294,3.1344,3.1378,3.1403,3.1457,3.1492,3.1505,3.1541,3.1593,3.1631,3.1689,3.1736,3.1829,3.1855,3.1908,3.1906,3.1957,3.1914,3.191,3.1906,3.1903,3.1908,3.1965,3.1967,3.1968,3.1969,0,3.1363,3.137,3.142,3.1473,3.1515,3.1557,3.1599,3.1626,3.1645,3.1685,3.1745,3.1781,3.1852,3.1909,3.1963,3.1987,3.1981,3.1982,3.1996,3.1995,3.1986,3.1991,3.184,3.1979,3.1978,3.1977,3.1976,3.1976,3.1446,3.149,3.1532,3.1587,3.1619,3.1658,3.1701,3.1724,3.1774,3.1833,3.1838,3.1902,3.1942,3.2014,3.2041,3.2091,3.2076,3.2096,3.2102,3.2106,3.211,3.1978,3.2101,3.21,3.21,3.21,3.21,0,3.1564,3.159,3.1641,3.1699,3.1742,3.1733,3.1777,3.1814,3.1871,3.1909,3.1955,3.2023,3.2078,3.2107,3.2162,3.2196,3.2194,3.221,3.2207,3.2213,3.2121,3.2103,3.221,3.221,3.221,3.221,3.221,3.221,3.1631,3.1704,3.1716,3.1806,3.1831,3.1894,3.192,3.1955,3.1986,3.2062,3.2107,3.2126,3.2161,3.2218,3.2268,3.2275,3.2295,3.2312,3.2318,3.2231,3.222,3.2209,3.2192,3.2316,3.2317,3.2406,3.2407,3.2407]}]]